Время (UTC), дата Ветер
(°,м/с) 
Видим.   Явления Облачность Т
(°С)
Тd
(°С)
f(%) Тe
(°С)
Pmin
(гПа)
dP
(гПа)
Po
(мм)
O2
(г/м3)
Тmin Tmax R s Состояние
почвы
00 01.02.18 100 (В) 10 км    10/0 средняя 
[Ac As]
-15.7 -19.1 75 -19  1011.8  747  321           
03 01.02.18 100 (В) 10 км  слаб. снег  10/0 средняя 
[Ac As]
-14.7 -17.6 79 -17  1012.3  0.5  747  320  -16.3    0.0  48  равномерный
сухой снег
100% 
06 01.02.18 100 (В) 10 км  слаб. снег  10/0 средняя 
[As op]
-14.5 -17.3 79 -17  1013.5  1.2  748  320           
09 01.02.18 070 (В) 10 км  слаб. снег  10/0 средняя 
[As op]
-12.6 -16 76 -13  1015.2  1.8  750  318           
12 01.02.18 080 (В) 10 км  слаб. снег  10/0 средняя 
[As op]
-12.3 -15.8 75 -14  1016.7  1.5  751  318           
15 01.02.18 130 (ЮВ) 10 км  слаб. снег  10/0 средняя 
[As op]
-12.3 -15.5 77 -12  1018.8  2.1  752  319    -11.7  0.3     
18 01.02.18 020 (С) 10 км  слаб. снег  10/10 600 м 
[Sc]
-11.9 -14.5 81 -12  1020.1  1.3  753  319           
21 01.02.18 280 (З) 4000 м  слаб. снег  10/10 300 м 
[Ns]
-12.1 -14.5 82 -14  1021.7  1.5  754  319           
00 02.02.18 290 (З) 4000 м  слаб. снег  10/0 средняя 
[As op]
-12.3 -14.5 84 -12  1023.2  1.4  756  320           
03 02.02.18 тихо ()   10 км  {снег}  10/0 верхняя 
[Cs]
-16.2 -18 86 -16  1024.4  756  325  -16.2    0.6  49  равномерный
сухой снег
100% 
06 02.02.18 300 (СЗ) 10 км  {снег} [диам. изморози 3 мм]  3/0 верхняя 
[Ci sp]
-16.1 -17.9 86 -16  1025.7  1.2  757  326  -17.2         
09 02.02.18 220 (ЮЗ) 10 км    ясно 
-11.7 -15.2 75 -12  1025.7  0.3  757  320           
12 02.02.18 150 (ЮВ) 10 км    8/0 верхняя 
[Ci]
-12.6 -16.8 71 -13  1026.1  0.4  758  321           
15 02.02.18 140 (ЮВ) 10 км    10/0 верхняя 
[Cs]
-14.2 -17.5 76 -14  1025.9  -0.3  757  323    -10.4       
18 02.02.18 140 (ЮВ) 10 км    10/0 средняя 
[As op]
-14.1 -16.9 79 -14  1025.2  -0.6  757  323           
21 02.02.18 130 (ЮВ) 10 км    10/0 средняя 
[As op]
-12.9 -15.3 82 -15  1024.4  -0.7  756  321           
00 03.02.18 140 (ЮВ) 10 км    10/0 средняя 
[As op]
-11.5 -13.6 84 -13  1023.9  -0.5  756  319           
03 03.02.18 140 (ЮВ) 10 км    10/0 средняя 
[As trans]
-10.6 -12.7 85 -14  1022.7  -1.1  755  318  -14.5      47  равномерный
сухой снег
100% 
06 03.02.18 140 (ЮВ) 10 км    10/0 средняя 
[As op]
-8.8 -11 84 -12  1022.6  0.1  755  316           
09 03.02.18 160 (Ю) 10 км    10/0 средняя, верхняя 
[As op|Cs]
-7.2 -10.4 78 -10  1022.6  0.2  755  314           
12 03.02.18 170 (Ю) 10 км    8/6 1000 м средняя, верхняя 
[Sc|Ac As|Ci]
-6.3 -10.2 74 -8  1023.4  0.7  756  313           
15 03.02.18 150 (ЮВ) 2-10{10}  10 км    10/10 300 м 
[Sc diur, vesp]
-6.3 -9.7 77 -8  1023.5  -0.1  756  313    -6.2       
18 03.02.18 150 (ЮВ) 10 км    10/6 300 м средняя 
[Sc|As op]
-6.3 -8.9 82 -9  1023  -0.1  756  313           
21 03.02.18 140 (ЮВ) 4{10}  10 км    10/10 300 м 
[Sc]
-6.7 -8.7 86 -10  1022.4  -0.7  755  313           
00 04.02.18 140 (ЮВ) 3{10}  10 км  слаб. снег  10/10 300 м 
[Sc]
-6.4 -8.1 88 -9  1021.8  -0.6  755  312           
03 04.02.18 150 (ЮВ) 2{11}  10 км  {снег}  10/10 600 м 
[Sc]
-6.1 -7.8 88 -8  1021  -0.7  754  312  -6.8    0.3  45  равномерный
сухой снег
100% 
06 04.02.18 150 (ЮВ) 3{11}  10 км  позёмок{снег}  10/10 600 м 
[Sc]
-5.5 -7.1 88 -8  1020.6  -0.4  754  311           
09 04.02.18 150 (ЮВ) 5-13{14}  10 км  позёмок  10/0 средняя 
[Ac As]
-4.5 -6.1 89 -8  1018.2  -2.3  752  309           
12 04.02.18 150 (ЮВ) 5-12{14}  4000 м  слаб. снег  10/8 300 м средняя 
[Sc|As op]
-3.4 -4.4 93 -7  1016.2  -1.8  751  307           
15 04.02.18 150 (ЮВ) 5-11{18}  10 км  слаб. дождь со снегом [диам. гололёда 1 мм]  10/10 300 м 
[Frnb|Ns]
-3.3 -4.4 92 -7  1014.3  -1.9  749  306    -3.1     
18 04.02.18 140 (ЮВ) 6-13{14}  2000 м  снег [диам. гололёда 1 мм]  10/10 200 м 
[Frnb|Ns]
-3 -3.9 94 -7  1012.1  -2.1  748  305           
21 04.02.18 140 (ЮВ) 6-13{16}  1000 м  сильн. снег [диам. гололёда 1 мм]  10/10 200 м 
[Frnb|Ns]
-2.5 -3.2 95 -6  1010.3  -1.8  746  304           
00 05.02.18 150 (ЮВ) 6-13{19}  0500 м  сильн. снег [диам. гололёда 1 мм]  10/10 200 м 
[Frnb|Ns]
-1.7 -1.7 100 -5  1009.8  -0.4  746  303           
03 05.02.18 150 (ЮВ) 8-15{15}  0500 м  сильн. снег [диам. гололёда 0 мм]  10/10 200 м 
[Frnb|Ns]
-2.3 -2.3 100 -7  1010.3  0.5  746  304  -3.4    22  54  равномерный
мокрый или
старый снег
100% 
06 05.02.18 140 (ЮВ) 5-12{15}  1000 м  сильн. снег  10/10 300 м 
[Frnb|Ns]
-4 -5 93 -8  1011.1  0.8  747  306  -4.1         
09 05.02.18 140 (ЮВ) 6-14{14}  0500 м  сильн. снег  10/10 300 м 
[Frnb|Ns]
-4.6 -5.7 92 -9  1011.6  0.4  747  307           
12 05.02.18 150 (ЮВ) 5-12{15}  1000 м  сильн. снег  10/10 300 м 
[Frnb|Ns]
-4.6 -5.8 91 -8  1013  1.4  748  307           
15 05.02.18 160 (Ю) 3-10{12}  4000 м  слаб. снег  10/10 300 м 
[Frnb|Ns]
-4.6 -5.9 91 -7  1015.5  2.4  750  308    -2.2     
18 05.02.18 140 (ЮВ) 4{11}  10 км  слаб. переохл. морось (гололёд){снег} [диам. гололёда 0 мм]  10/10 300 м 
[St]
-4.4 -5.6 91 -8  1017.8  2.4  752  309           
21 05.02.18 150 (ЮВ) 4{10}  10 км  слаб. переохл. морось (гололёд) [диам. гололёда 1 мм]  10/10 300 м 
[St]
-4.8 -5.9 92 -8  1021.1  3.2  754  310           
00 06.02.18 140 (ЮВ) 10 км  слаб. снег{морось} [диам. гололёда 1 мм]  10/10 600 м 
[Sc]
-5 -6.3 91 -8  1024.1  2.9  757  311           
03 06.02.18 150 (ЮВ) 10 км  слаб. снег [диам. гололёда 1 мм]  10/10 600 м 
[Sc]
-5.5 -6.4 93 -7  1026.4  2.2  758  313  -5.5    52  равномерный
мокрый или
старый снег
100% 
06 06.02.18 150 (ЮВ) 10 км  слаб. снег [диам. гололёда 1 мм]  10/10 300 м 
[Ns]
-5.8 -6.6 94 -7  1029  2.6  760  314  -5.8         
09 06.02.18 140 (ЮВ) 10 км  слаб. снег [диам. гололёда 1 мм]  10/10 600 м 
[Sc]
-5.4 -6.6 91 -7  1030.7  1.7  761  314           
12 06.02.18 140 (ЮВ) 10 км  слаб. снег [диам. гололёда 1 мм]  10/10 600 м 
[Sc]
-5.7 -7.2 89 -7  1032.2  1.5  763  315           
15 06.02.18 120 (ЮВ) 10 км  слаб. снег [диам. гололёда 1 мм]  10/8 600 м средняя 
[Sc|As op]
-6 -7.3 90 -7  1033.1  0.9  763  315    -5.3     
18 06.02.18 140 (ЮВ) 10 км  слаб. снег [диам. гололёда 1 мм]  10/8 600 м средняя 
[Sc|As op]
-5.9 -7 92 -7  1033.9  0.7  764  315           
21 06.02.18 150 (ЮВ) 10 км  слаб. снег [диам. гололёда 1 мм]  10/8 600 м средняя 
[Sc|As op]
-5.8 -7 91 -7  1035.4  1.5  765  316           
00 07.02.18 180 (Ю) 10 км  слаб. снег [диам. гололёда 1 мм]  10/0 средняя 
[As op]
-6.6 -8.3 88 -6  1037.5  766  317           
03 07.02.18 230 (ЮЗ) 10 км  слаб. снег [диам. гололёда 0 мм]  10/0 средняя 
[As op]
-8.2 -10.1 86 -8  1040.5  2.8  768  320  -8.2    57  равномерный
сухой снег
100% 
06 07.02.18 160 (Ю) 10 км  {снег} [диам. гололёда 1 мм]  8/0 средняя, верхняя 
[Ac lent|Cc]
-10.1 -11.6 89 -10  1042.9  2.3  770  323  -10.5         
09 07.02.18 140 (ЮВ) 10 км  [диам. гололёда 1 мм]  ясно 
-8.7 -11.4 81 -8  1044.5  1.6  771  322           
12 07.02.18 140 (ЮВ) 10 км    8/0 верхняя 
[Ci]
-9.2 -12.4 78 -11  1045.3  0.7  772  323           
15 07.02.18 090 (В) 10 км    8/0 верхняя 
[Ci]
-9.8 -12.8 79 -12  1045.5  0.2  772  324    -8.2  0.0     
18 07.02.18 100 (В) 10 км    8/0 средняя, верхняя 
[Ac cast|Ci]
-9.6 -12.2 81 -13  1044.4  -1  771  323           
21 07.02.18 100 (В) 10 км    8/0 средняя, верхняя 
[Ac cast|Ci]
-8.4 -10.2 87 -10  1043.3  -1  771  321           
00 08.02.18 100 (В) 10 км    10/0 средняя 
[Ac As]
-8.4 -10.3 86 -8  1042.4  -0.8  770  321           
03 08.02.18 100 (В) 10 км    10/0 средняя, верхняя 
[Ac lent|Ci]
-7.8 -10.2 83 -8  1041.7  -0.7  769  320  -9.9      56  равномерный
сухой снег
100% 
06 08.02.18 110 (В) 10 км  {снег}  8/0 средняя 
[Ac As]
-7.7 -9.7 86 -7  1041.6  -0.7  769  320           
09 08.02.18 140 (ЮВ) 10 км    8/0 средняя 
[Ac lent]
-6.5 -10 76 -8  1040.7  -0.8  769  318           
12 08.02.18 150 (ЮВ) 10 км    8/0 средняя 
[Ac As]
-7 -10.5 76 -8  1040.1  -0.6  768  319           
15 08.02.18 100 (В) 10 км    8/0 средняя 
[Ac As]
-8.6 -11.2 81 -8  1040.3  768  321    -6.2  0.0     
18 08.02.18 140 (ЮВ) 10 км    6/0 верхняя 
[Ci fib]
-9.9 -12.2 83 -10  1039.9  -0.4  768  322           
21 08.02.18 140 (ЮВ) 10 км    10/10 300 м 
[Sc]
-10.6 -12.3 87 -10  1039.9  -0.4  768  323           
00 09.02.18 100 (В) 10 км    10/10 300 м 
[Sc]
-10.8 -12.6 87 -13  1039.6  -0.2  768  323           
03 09.02.18 100 (В) 10 км    8/0 средняя 
[Ac As]
-12.3 -14 87 -12  1039.7  768  325  -12.1      56  равномерный
сухой снег
100% 
06 09.02.18 090 (В) 10 км    5/0 верхняя 
[Cs]
-12.3 -14.1 86 -12  1039.4  -0.3  767  325  -13.4         
09 09.02.18 160 (Ю) 10 км    10/0 верхняя 
[Cs]
-10.2 -13 80 -12  1038.8  -0.4  767  322           
12 09.02.18 140 (ЮВ) 10 км    10/0 верхняя 
[Cs]
-9.6 -12.6 79 -11  1038.8  767  322           
15 09.02.18 100 (В) 10 км    10/0 верхняя 
[Cs]
-9.9 -12.3 83 -10  1038.4  -0.4  767  322    -8.6       
18 09.02.18 100 (В) 10 км    5/0 верхняя 
[Cs]
-10.6 -12.6 85 -10  1037.9  -0.5  767  323           
21 09.02.18 110 (В) 10 км    5/0 верхняя 
[Ci fib]
-11.4 -13.3 86 -11  1037.7  -0.3  766  323           
00 10.02.18 110 (В) 10 км    ясно 
-12.5 -14.2 87 -12  1037.5  -0.2  766  325           
03 10.02.18 110 (В) 10 км    5/0 верхняя 
[Cs]
-12.9 -14.7 86 -13  1037  -0.5  766  325  -12.9      56  равномерный
сухой снег
100% 
06 10.02.18 110 (В) 10 км    8/0 средняя 
[Ac lent]
-12 -13.9 86 -12  1037  766  324  -13.4         
09 10.02.18 160 (Ю) 10 км    8/0 верхняя 
[Cs]
-8.5 -12.5 73 -8  1036.5  -0.3  766  320           
12 10.02.18 170 (Ю) 10 км    3/0 верхняя 
[Ci fib]
-6 -12.2 61 -6  1035.4  -0.9  765  316           
15 10.02.18 110 (В) 10 км    3/0 верхняя 
[Cc]
-8.9 -12.7 74 -11  1035.2  -0.3  765  320    -5       
18 10.02.18 тихо ()   10 км    4/0 средняя 
[Ac lent]
-11.7 -14 83 -12  1034.8  -0.6  764  323           
21 10.02.18 тихо ()   10 км    3/0 верхняя 
[Cc]
-11.3 -13.3 85 -11  1033.8  -0.9  763  322           
00 11.02.18 120 (ЮВ) 10 км    10/0 верхняя 
[Cs]
-11.3 -12.9 88 -11  1033.4  -0.4  763  322           
03 11.02.18 тихо ()   10 км    10/0 средняя, верхняя 
[Ac trans|Cs]
-14 -15.5 88 -14  1032.8  -0.7  763  325  -14.5      55  равномерный
сухой снег
100% 
06 11.02.18 тихо ()   10 км    10/0 средняя, верхняя 
[Ac cast|Cc]
-12.6 -14.4 86 -13  1032.2  -0.5  762  323  -14.5         
09 11.02.18 280 (З) 10 км    8/0 средняя, верхняя 
[Ac lent|Cc]
-6.7 -11.7 68 -6  1031.1  -0.7  762  316           
12 11.02.18 100 (В) 10 км    8/0 средняя 
[Ac cast]
-4.5 -12.3 54 -4  1029.7  -1.2  761  313           
15 11.02.18 360 (С) 10 км    8/0 средняя 
[Ac cast]
-7.2 -12.3 67 -9  1029.3  -0.6  760  316    -2.2       
18 11.02.18 090 (В) 10 км    6/0 верхняя 
[Ci fib]
-8.5 -13.5 67 -8  1028.6  -0.8  760  317           
21 11.02.18 060 (СВ) 10 км    ясно 
-9.3 -13.8 70 -9  1028.2  -0.4  759  318           
00 12.02.18 090 (В) 10 км    ясно 
-11.3 -13.5 84 -11  1028.2  0.1  759  320           
03 12.02.18 060 (СВ) 10 км    3/0 верхняя 
[Ci fib]
-12.9 -14.5 88 -13  1028.1  -0.2  759  322  -14.2      53  равномерный
сухой снег
100% 
06 12.02.18 тихо ()   4000 м  дымка  10/0 средняя 
[As trans]
-11.2 -13.4 84 -11  1028.3  0.3  759  320  -14.5         
09 12.02.18 тихо ()   10 км    ясно 
-5.6 -12.2 60 -6  1028  759  314           
12 12.02.18 360 (С) 10 км    ясно 
-6.6 -13 60 -6  1027.6  -0.4  759  315           
18 12.02.18 тихо ()   10 км    4/0 средняя 
[Ac lent]
-11.9 -14.5 81 -12  1028.3  -0.2  759  321           
21 12.02.18 тихо ()   10 км    3/0 средняя 
[Ac lent]
-12.6 -14.4 86 -13  1028.8  0.5  760  322           
00 13.02.18 тихо ()   10 км    4/0 средняя 
[Ac lent]
-14.4 -16.1 87 -14  1029.3  0.4  760  325           
03 13.02.18 тихо ()   10 км    ясно 
-15.4 -17.1 87 -15  1029.9  0.5  760  326  -15.5      53  равномерный
сухой снег
100% 
06 13.02.18 тихо ()   10 км    ясно 
-13 -14.7 87 -13  1030.4  0.5  761  323  -15.7         
09 13.02.18 290 (З) 10 км    3/0 средняя 
[Ac lent]
-7.1 -14.3 56 -7  1030.5  0.5  761  316           
12 13.02.18 320 (СЗ) 10 км    ясно 
-7.8 -13.3 65 -9  1030.3  0.1  761  317           
15 13.02.18 040 (СВ) 10 км    1/0 средняя 
[Ac lent]
-10.3 -14.1 74 -10  1031  0.5  761  320    -5.4       
18 13.02.18 010 (С) 10 км    ясно 
-10.5 -13.5 79 -10  1031.4  0.4  762  320           
21 13.02.18 тихо ()   10 км    ясно 
-14.1 -16.3 83 -14  1032.3  0.6  762  325           
00 14.02.18 330 (СЗ) 10 км    ясно 
-14.9 -16.6 87 -15  1033  0.7  763  326           
03 14.02.18 тихо ()   10 км    ясно 
-16 -17.8 86 -16  1033.8  0.7  763  328  -16      53  равномерный
сухой снег
100% 
06 14.02.18 тихо ()   10 км    ясно 
-13.8 -15.8 85 -14  1034.8  764  326  -17.9         
09 14.02.18 080 (В) 10 км    ясно 
-6.6 -14.4 54 -6  1035  0.6  764  317           
12 14.02.18 тихо ()   10 км    ясно 
-6.5 -15 51 -7  1035.6  0.7  765  317           
15 14.02.18 тихо ()   10 км    ясно 
-10.9 -15.1 71 -11  1036.9  766  323    -5.9       
18 14.02.18 тихо ()   10 км    ясно 
-13.6 -16.2 81 -14  1037.6  0.5  766  326           
21 14.02.18 тихо ()   10 км    ясно 
-14.9 -16.9 85 -15  1038.2  0.5  767  328           
00 15.02.18 тихо ()   10 км    ясно 
-15.2 -17 86 -15  1039  0.8  767  329           
03 15.02.18 тихо ()   10 км    ясно 
-16.1 -18.1 85 -16  1040  0.9  768  330  -16.8      53  равномерный
сухой снег
100% 
06 15.02.18 270 (З) 10 км    4/0 верхняя 
[Cs]
-15.6 -17.9 82 -16  1041  769  330  -17         
09 15.02.18 260 (З) 10 км    ясно 
-5.4 -14.5 49 -5  1041  0.6  769  317           
12 15.02.18 290 (З) 10 км    ясно 
-4.9 -13.7 50 -4  1041.6  0.6  769  317           
15 15.02.18 тихо ()   10 км    ясно 
-9.5 -14.6 66 -10  1042.3  0.5  770  323    -4.6       
18 15.02.18 110 (В) 10 км    ясно 
-12.7 -15.9 77 -13  1042.6  0.1  770  327           
21 15.02.18 тихо ()   10 км    ясно 
-14.3 -16.9 81 -14  1042.9  0.2  770  329           
00 16.02.18 110 (В) 10 км    ясно 
-15.1 -17.3 83 -15  1043.5  0.5  770  330           
06 16.02.18 150 (ЮВ) 10 км    ясно 
-15.2 -17.6 82 -15  1043.8  0.2  771  330  -16.7         
09 16.02.18 140 (ЮВ) 10 км    ясно 
-11.7 -16.4 68 -14  1043.7  0.1  771  326           
12 16.02.18 140 (ЮВ) 10 км    8/0 средняя 
[Ac lent]
-10.2 -15.6 65 -12  1043.1  -0.5  770  324           
15 16.02.18 150 (ЮВ) 10 км    9/0 средняя 
[Ac lent]
-11 -15.3 71 -11  1042.5  -0.6  770  325    -9.7       
18 16.02.18 170 (Ю) 10 км    9/0 средняя 
[Ac lent]
-10.9 -15 72 -11  1041.8  -0.7  769  324           
21 16.02.18 140 (ЮВ) 10 км    9/9 600 м 
[Sc]
-10.9 -14.8 73 -13  1041  -0.8  769  324           
00 17.02.18 140 (ЮВ) 10 км    10/10 600 м 
[Sc]
-10.9 -14.9 72 -11  1040.6  -0.3  768  324           
03 17.02.18 120 (ЮВ) 10 км    10/10 600 м 
[Sc]
-11.2 -14.6 76 -11  1040.1  -0.5  768  324  -11.4      52  равномерный
сухой снег
100% 
06 17.02.18 160 (Ю) 10 км    10/10 600 м 
[Sc]
-11.9 -15.2 76 -14  1040  -0.2  768  325  -11.9         
09 17.02.18 140 (ЮВ) 10 км    5/0 средняя 
[Ac lent]
-9.6 -14.6 67 -11  1039.1  -0.7  767  322           
12 17.02.18 140 (ЮВ) 10 км    8/0 средняя 
[Ac lent]
-8.5 -13.4 68 -10  1037.8  -1.2  767  320           
15 17.02.18 140 (ЮВ) 10 км    9/9 600 м 
[Sc]
-8.6 -11.6 79 -10  1037  -0.8  766  320    -7.7       
18 17.02.18 140 (ЮВ) 10 км    8/0 средняя 
[Ac lent]
-9 -11.7 81 -9  1036.2  -0.8  765  320           
21 17.02.18 140 (ЮВ) 10 км    10/10 600 м 
[Sc]
-10.2 -12.7 82 -12  1035.7  -0.6  765  321           
00 18.02.18 130 (ЮВ) 10 км    10/10 600 м 
[Sc]
-10.4 -12.6 84 -12  1035.3  -0.4  765  321           
03 18.02.18 150 (ЮВ) 10 км    9/0 средняя 
[Ac lent]
-11.3 -12.9 88 -14  1034.2  -1.1  764  322  -11.3      52  равномерный
сухой снег
100% 
06 18.02.18 140 (ЮВ) 10 км    10/0 верхняя 
[Cs]
-11.5 -13.1 88 -13  1034.2  764  322  -12.2         
09 18.02.18 150 (ЮВ) 10 км    10/0 средняя 
[As op]
-8.4 -12 75 -10  1033.2  -0.8  763  318           
12 18.02.18 140 (ЮВ) 10 км    10/0 средняя, верхняя 
[Ac lent|Cs]
-6.7 -12.7 62 -8  1031.6  -1.5  762  316           
15 18.02.18 120 (ЮВ) 10 км    10/0 средняя, верхняя 
[Ac lent|Cs]
-7 -11.3 71 -8  1029.6  -0.8  761  316    -6.6       
18 18.02.18 130 (ЮВ) 10 км    10/0 средняя 
[Ac As]
-7.2 -11 74 -9  1027.8  -1.8  759  315           
21 18.02.18 130 (ЮВ) 10 км  в посл. час снег  10/6 600 м средняя 
[Sc|As op]
-7.5 -9.3 87 -9  1026.3  -1.5  758  315           
00 19.02.18 140 (ЮВ) 4000 м  слаб. снег  10/10 600 м 
[Ns]
-7.1 -8.7 88 -10  1024.2  -2  757  314           
03 19.02.18 150 (ЮВ) 10 км  слаб. снег  10/8 300 м средняя 
[Sc|As trans]
-7.4 -9 88 -9  1022.6  -1.6  755  314  -7.5    54  равномерный
сухой снег
100% 
06 19.02.18 140 (ЮВ) 10 км  слаб. снег  10/0 средняя 
[As op]
-8.1 -9.8 88 -11  1022.1  -0.6  755  314  -8         
09 19.02.18 170 (Ю) 10 км  слаб. снег  10/10 600 м 
[Ns]
-6.6 -8.6 86 -8  1022.2  0.2  755  313           
12 19.02.18 180 (Ю) 4000 м  слаб. снег  10/10 600 м 
[Ns]
-6.2 -8.3 85 -6  1021.5  -0.6  755  312           
15 19.02.18 160 (Ю) 10 км  {снег}  8/6 600 м средняя 
[Sc|Ac trans]
-7.1 -8.8 88 -7  1021.3  -0.2  754  313    -5.8     
18 19.02.18 170 (Ю) 10 км  {снег}  8/8 600 м 
[Sc]
-7.9 -9.3 90 -8  1020.5  -0.9  754  314           
21 19.02.18 170 (Ю) 10 км    10/10 600 м 
[Sc]
-7.9 -9.3 90 -8  1019.4  -1.1  753  313           
00 20.02.18 160 (Ю) 10 км    10/10 300 м 
[Sc]
-8.7 -9.9 91 -8  1018.7  -0.8  752  314           
03 20.02.18 130 (ЮВ) 10 км  слаб. снег  10/10 200 м 
[Ns]
-9.9 -11.1 91 -13  1017.2  -1.5  751  315  -9.9    0.3  57  равномерный
сухой снег
100% 
06 20.02.18 150 (ЮВ) 4000 м  слаб. снег  10/10 300 м 
[Ns]
-9.8 -11 91 -12  1016.9  -0.3  751  315  -10         
09 20.02.18 150 (ЮВ) 10 км  слаб. снег  10/10 300 м 
[Sc]
-7.8 -9.3 89 -8  1016.1  -0.7  751  312           
12 20.02.18 210 (ЮЗ) 10 км  {снег}  10/10 300 м 
[Sc]
-6.2 -9 81 -6  1015.4  -0.6  750  310           
15 20.02.18 140 (ЮВ) 10 км  слаб. снег  10/10 300 м 
[Sc]
-7.1 -8.9 87 -7  1015  -0.5  750  311    -5.4  0.5     
18 20.02.18 160 (Ю) 10 км  слаб. снег  10/10 300 м 
[Sc]
-7.2 -8.6 90 -7  1014.7  -0.3  749  311           
21 20.02.18 270 (З) 10 км  {снег}  6/0 средняя 
[As op]
-8.2 -9.4 91 -8  1014.7  749  312           
00 21.02.18 260 (З) 10 км  {снег}  10/10 300 м 
[Sc]
-7.6 -8.8 91 -9  1015  0.3  750  312           
03 21.02.18 260 (З) 10 км  слаб. снег  10/10 300 м 
[Sc]
-9.8 -11.1 90 -12  1015.6  0.3  750  315  -9.6    0.1  59  равномерный
сухой снег
100% 
06 21.02.18 280 (З) 10 км  слаб. снег  9/9 600 м 
[Sc]
-9.7 -11.3 88 -11  1016  0.4  750  315  -10.5         
09 21.02.18 260 (З) 10 км  {снег}  9/9 600 м 
[Sc]
-8.4 -11.8 76 -10  1016.1  0.1  750  313           
12 21.02.18 270 (З) 10 км  слаб. снег  9/9 600 м 
[Sc]
-8.3 -11 81 -11  1016.6  0.4  751  313           
15 21.02.18 280 (З) 10 км  слаб. снег  10/8 600 м средняя 
[Sc|As trans]
-9.9 -12.4 82 -13  1017.5  0.8  752  315    -8  0.2     
18 21.02.18 270 (З) 10 км  {снег}  10/5 600 м средняя 
[Sc|As trans]
-11.6 -13.9 83 -14  1018.7  752  318           
21 21.02.18 270 (З) 10 км  слаб. снег  10/5 600 м средняя 
[Sc|As trans]
-12.9 -15 84 -15  1019.6  0.8  753  320           
00 22.02.18 270 (З) 10 км  {снег}  10/10 600 м 
[Sc]
-13.1 -15 86 -15  1020.4  0.8  753  320           
03 22.02.18 270 (З) 10 км  слаб. снег  10/10 600 м 
[Sc]
-14.2 -16.2 85 -16  1021.1  0.6  754  322  -14.3    0.0  56  равномерный
сухой снег
100% 
06 22.02.18 280 (З) 10 км  слаб. снег  10/0 средняя 
[Ac As]
-14.5 -16.9 82 -17  1021.8  0.7  754  322  -14.8         
09 22.02.18 250 (З) 10 км  слаб. снег  10/0 средняя 
[Ac As]
-12.9 -16.8 73 -15  1022.2  0.5  755  321           
12 22.02.18 270 (З) 10 км  в посл. час снег  4/0 верхняя 
[Cc]
-12.3 -16.6 70 -16  1022.6  0.4  755  320           
15 22.02.18 270 (З) 10 км    8/0 верхняя 
[Cs]
-13.9 -17.3 75 -17  1023.3  0.6  756  322    -11.6  0.0     
18 22.02.18 300 (СЗ) 10 км  слаб. снег  10/0 средняя 
[Ac As]
-14.7 -17.3 81 -17  1024.3  0.9  756  323           
21 22.02.18 280 (З) 10 км  {снег}  ясно 
-16.5 -18.4 85 -17  1024.8  0.4  757  326           
00 23.02.18 310 (СЗ) 10 км  {снег}  3/0 средняя 
[Ac lent]
-17.3 -19.2 85 -17  1025.5  0.6  757  327           
03 23.02.18 300 (СЗ) 10 км    8/0 средняя 
[Ac lent]
-18.3 -20.4 84 -21  1025.6  0.1  757  329  -18.3    0.0  54  равномерный
сухой снег
100% 
06 23.02.18 290 (З) 10 км    6/0 средняя, верхняя 
[Ac lent|Ci fib]
-17 -19.2 83 -17  1025.9  0.4  757  327  -19.4         
09 23.02.18 280 (З) 10 км    ясно 
-13.1 -15.7 81 -13  1025.6  0.1  757  322           
12 23.02.18 270 (З) 10 км    3/0 средняя, верхняя 
[Ac lent|Ci fib]
-10.3 -16.3 61 -12  1024.9  -0.5  757  318           
15 23.02.18 250 (З) 10 км    ясно 
-12.8 -17.5 68 -15  1024.9  -0.2  757  321    -10.2       
18 23.02.18 240 (ЮЗ) 10 км    ясно 
-13.8 -17.7 72 -14  1025.3  0.4  757  323           
21 23.02.18 тихо ()   10 км    10/0 
-15 -18.2 77 -15  1025.4  757  324           
00 24.02.18 150 (ЮВ) 10 км    10/0 средняя 
[Ac As]
-16.6 -18.9 82 -17  1025.6  0.1  757  326           
03 24.02.18 150 (ЮВ) 10 км    6/0 средняя 
[Ac lent]
-16.6 -18.8 83 -17  1025.6  757  326  -17      53  равномерный
сухой снег
100% 
06 24.02.18 230 (ЮЗ) 10 км  слаб. снег  10/10 1000 м 
[Sc]
-14.1 -16.8 80 -16  1026.2  0.7  758  323           
09 24.02.18 300 (СЗ) 10 км  {снег}  9/0 средняя, верхняя 
[As op|Cs]
-11 -15.2 71 -13  1026  758  319           
12 24.02.18 290 (З) 10 км  {снег}  ясно 
-9.8 -15.4 64 -12  1025.8  0.1  758  318           
15 24.02.18 270 (З) 10 км    3/3 1000 м 
[Sc]
-12.5 -16.5 72 -12  1026.2  0.2  758  321    -9.6  0.0     
18 24.02.18 300 (СЗ) 10 км    10/10 600 м 
[Sc]
-13.5 -16.2 80 -13  1026.5  0.3  758  323           
21 24.02.18 тихо ()   10 км  {снег}  9/0 средняя 
[As op]
-14.8 -16.8 85 -15  1026.5  0.1  758  324           
00 25.02.18 тихо ()   10 км  {снег}  ясно 
-17.8 -20.1 82 -18  1026.4  -0.3  758  328           
06 25.02.18 120 (ЮВ) 10 км    9/0 средняя 
[Ac lent]
-17 -19.5 81 -17  1026.4  0.2  758  327  -20.8         
09 25.02.18 080 (В) 10 км    ясно 
-13.5 -18.5 66 -16  1025.5  -0.6  757  322           
12 25.02.18 070 (В) 10 км    ясно 
-13.8 -18.6 67 -16  1025.4  -0.1  757  323           
15 25.02.18 050 (СВ) 10 км  {снег}  5/0 верхняя 
[Cs]
-15.9 -20.1 70 -18  1025.6  0.1  757  326    -12.4  0.0     
18 25.02.18 080 (В) 10 км  {снег}  ясно 
-16.5 -20.4 72 -19  1025.7  757  326           
21 25.02.18 060 (СВ) 10 км    ясно 
-18.2 -22.5 69 -18  1025.6  -0.2  757  328           
00 26.02.18 тихо ()   10 км    ясно 
-20.9 -24.6 72 -21  1025.7  0.1  757  332           
03 26.02.18 010 (С) 10 км    ясно 
-21.2 -24.9 72 -22  1025.5  -0.2  757  332  -21.3      53  равномерный
сухой снег
100% 
06 26.02.18 010 (С) 10 км    ясно 
-18 -22.9 65 -18  1025.3  0.2  757  328  -21.4         
Время (UTC), дата Ветер
(°,м/с) 
Видим.   Явления Облачность Т
(°С)
Тd
(°С)
f(%) Тe
(°С)
Pmin
(гПа)
dP
(гПа)
Po
(мм)
O2
(г/м3)
Тmin Tmax R s Состояние
почвы